TimeEST,TemperatureF,Dew PointF,Humidity,Sea Level PressureIn,VisibilityMPH,Wind Direction,Wind SpeedMPH,Gust SpeedMPH,PrecipitationIn,Events,Conditions,WindDirDegrees,DateUTC
12:26 AM,42.8,37.4,81,30.00,10.0,North,11.5,20.7,N/A,,Overcast,10,2013-01-18 05:26:00
12:56 AM,43.0,37.9,82,30.06,10.0,North,16.1,-,0.00,Rain,Light Rain,350,2013-01-18 05:56:00
1:05 AM,42.8,37.4,81,30.07,10.0,NNW,15.0,25.3,0.00,Rain,Light Rain,340,2013-01-18 06:05:00
1:56 AM,41.0,36.0,82,30.13,10.0,NNW,19.6,27.6,0.01,Rain,Light Rain,340,2013-01-18 06:56:00
2:56 AM,39.9,35.1,83,30.14,10.0,North,13.8,21.9,0.00,,Overcast,360,2013-01-18 07:56:00
3:56 AM,39.9,35.1,83,30.23,10.0,NNW,12.7,24.2,N/A,,Overcast,330,2013-01-18 08:56:00
4:32 AM,39.2,33.8,81,30.22,10.0,NNW,10.4,-,N/A,,Mostly Cloudy,340,2013-01-18 09:32:00
4:40 AM,39.2,33.8,81,30.22,10.0,NNW,11.5,-,N/A,,Overcast,340,2013-01-18 09:40:00
4:56 AM,39.0,34.0,82,30.25,10.0,NNW,11.5,-,N/A,,Mostly Cloudy,330,2013-01-18 09:56:00
5:56 AM,39.0,34.0,82,30.28,10.0,NNW,11.5,-,N/A,,Mostly Cloudy,340,2013-01-18 10:56:00
6:11 AM,39.2,33.8,81,30.29,10.0,NNW,10.4,21.9,N/A,,Scattered Clouds,340,2013-01-18 11:11:00
6:56 AM,37.9,33.1,83,30.33,10.0,NNW,11.5,-,N/A,,Scattered Clouds,340,2013-01-18 11:56:00
7:03 AM,37.4,33.8,87,30.32,10.0,NNW,10.4,-,N/A,,Mostly Cloudy,340,2013-01-18 12:03:00
7:32 AM,37.4,33.8,87,30.34,10.0,North,6.9,-,N/A,,Scattered Clouds,350,2013-01-18 12:32:00
7:56 AM,37.9,33.1,83,30.36,10.0,North,9.2,-,N/A,,Scattered Clouds,350,2013-01-18 12:56:00
8:04 AM,37.4,32.0,81,30.36,10.0,NNW,8.1,-,N/A,,Mostly Cloudy,340,2013-01-18 13:04:00
8:14 AM,39.2,33.8,81,30.37,9.0,NNW,6.9,-,N/A,,Scattered Clouds,340,2013-01-18 13:14:00
8:56 AM,39.9,33.1,77,30.41,10.0,NNW,10.4,-,N/A,,Partly Cloudy,330,2013-01-18 13:56:00
9:56 AM,42.1,34.0,73,30.46,10.0,NNW,12.7,-,N/A,,Scattered Clouds,340,2013-01-18 14:56:00
10:56 AM,45.0,30.9,58,30.46,10.0,North,13.8,-,N/A,,Partly Cloudy,10,2013-01-18 15:56:00
11:56 AM,48.0,28.9,48,30.45,10.0,North,16.1,24.2,N/A,,Partly Cloudy,360,2013-01-18 16:56:00
12:56 PM,48.9,25.0,39,30.44,10.0,North,15.0,27.6,N/A,,Clear,10,2013-01-18 17:56:00
1:56 PM,50.0,26.1,39,30.44,10.0,North,8.1,-,N/A,,Clear,10,2013-01-18 18:56:00
2:56 PM,50.0,26.1,39,30.45,10.0,North,15.0,20.7,N/A,,Clear,10,2013-01-18 19:56:00
3:56 PM,50.0,24.1,36,30.46,10.0,NNE,12.7,-,N/A,,Clear,20,2013-01-18 20:56:00
4:56 PM,48.0,24.1,39,30.49,10.0,North,10.4,-,N/A,,Clear,10,2013-01-18 21:56:00
5:56 PM,44.1,26.1,49,30.52,10.0,NNE,5.8,-,N/A,,Clear,20,2013-01-18 22:56:00
6:56 PM,42.1,27.0,55,30.54,10.0,NNE,8.1,-,N/A,,Clear,30,2013-01-18 23:56:00
7:56 PM,42.1,27.0,55,30.55,10.0,ENE,9.2,-,N/A,,Clear,60,2013-01-19 00:56:00
8:56 PM,41.0,26.1,55,30.55,10.0,ENE,9.2,-,N/A,,Clear,60,2013-01-19 01:56:00
9:56 PM,39.9,26.1,58,30.55,10.0,ENE,8.1,-,N/A,,Clear,60,2013-01-19 02:56:00
10:56 PM,36.0,26.1,67,30.53,10.0,NE,4.6,-,N/A,,Clear,40,2013-01-19 03:56:00
11:56 PM,36.0,26.1,67,30.53,10.0,Calm,Calm,-,N/A,,Clear,0,2013-01-19 04:56:00